Time,TemperatureF,DewpointF,PressureIn,WindDirection,WindDirectionDegrees,WindSpeedMPH,WindSpeedGustMPH,Humidity,HourlyPrecipIn,Conditions,Clouds,dailyrainin,SoftwareType,DateUTC
2013-07-17 00:00:00,77.7,65.3,30.08,East,90,4.9,5.3,65,0.00,,,0.00,tws,2013-07-17 07:00:00,
2013-07-17 00:10:00,77.6,65.3,30.08,NE,45,4.6,6.4,65,0.00,,,0.00,tws,2013-07-17 07:10:00,
2013-07-17 00:20:00,77.6,65.3,30.08,ESE,112,3.4,4.3,65,0.00,,,0.00,tws,2013-07-17 07:20:00,
2013-07-17 00:30:00,77.6,65.5,30.07,North,0,3.2,3.7,65,0.00,,,0.00,tws,2013-07-17 07:30:00,
2013-07-17 00:40:00,77.6,65.7,30.07,NE,45,2.4,3.3,66,0.00,,,0.00,tws,2013-07-17 07:40:00,
2013-07-17 00:50:00,77.5,65.7,30.06,East,90,1.2,2.1,66,0.00,,,0.00,tws,2013-07-17 07:50:00,
2013-07-17 01:00:00,77.5,65.6,30.06,South,180,1.8,2.3,66,0.00,,,0.00,tws,2013-07-17 08:00:00,
2013-07-17 01:10:00,77.4,65.6,30.07,SW,225,0.2,1.3,66,0.00,,,0.00,tws,2013-07-17 08:10:00,
2013-07-17 01:20:00,77.3,65.6,30.06,NE,45,0.0,0.0,66,0.00,,,0.00,tws,2013-07-17 08:20:00,
2013-07-17 01:30:00,77.1,65.5,30.05,NNW,337,0.1,0.5,66,0.00,,,0.00,tws,2013-07-17 08:30:00,
2013-07-17 01:40:00,76.9,65.7,30.06,North,0,1.7,2.7,67,0.00,,,0.00,tws,2013-07-17 08:40:00,
2013-07-17 01:50:00,76.8,66.0,30.05,NE,45,2.3,3.4,68,0.00,,,0.00,tws,2013-07-17 08:50:00,
2013-07-17 02:00:00,76.9,66.3,30.05,North,0,0.8,1.7,69,0.00,,,0.00,tws,2013-07-17 09:00:00,
2013-07-17 02:10:00,76.8,66.2,30.05,North,0,0.5,1.7,69,0.00,,,0.00,tws,2013-07-17 09:10:00,
2013-07-17 02:20:00,76.5,66.4,30.05,NW,315,0.5,1.6,70,0.00,,,0.00,tws,2013-07-17 09:20:00,
2013-07-17 02:30:00,76.2,66.4,30.04,North,0,1.2,1.7,71,0.00,,,0.00,tws,2013-07-17 09:30:00,
2013-07-17 02:40:00,76.0,66.3,30.04,SW,225,0.1,1.3,71,0.00,,,0.00,tws,2013-07-17 09:40:00,
2013-07-17 02:50:00,76.0,66.4,30.03,SE,135,1.6,2.6,71,0.00,,,0.00,tws,2013-07-17 09:50:00,
2013-07-17 03:00:00,76.1,66.6,30.03,East,90,2.5,3.8,72,0.00,,,0.00,tws,2013-07-17 10:00:00,
2013-07-17 03:10:00,76.1,66.7,30.03,SE,135,2.4,3.2,72,0.00,,,0.00,tws,2013-07-17 10:10:00,
2013-07-17 03:20:00,76.1,66.8,30.03,East,90,3.0,3.4,72,0.00,,,0.00,tws,2013-07-17 10:20:00,
2013-07-17 03:30:00,76.1,66.5,30.04,NE,45,2.9,3.7,71,0.00,,,0.00,tws,2013-07-17 10:30:00,
2013-07-17 03:40:00,76.1,66.7,30.03,NE,45,2.1,2.9,72,0.00,,,0.00,tws,2013-07-17 10:40:00,
2013-07-17 03:50:00,76.1,66.7,30.03,North,0,1.3,2.0,72,0.00,,,0.00,tws,2013-07-17 10:50:00,
2013-07-17 04:00:00,76.0,66.8,30.03,NE,45,1.7,2.3,72,0.00,,,0.00,tws,2013-07-17 11:00:00,
2013-07-17 04:10:00,76.0,66.7,30.03,East,90,1.8,2.1,72,0.00,,,0.00,tws,2013-07-17 11:10:00,
2013-07-17 04:20:00,76.0,66.8,30.03,North,0,1.4,2.9,72,0.00,,,0.00,tws,2013-07-17 11:20:00,
2013-07-17 04:30:00,75.9,66.6,30.04,ESE,112,1.7,2.3,72,0.00,,,0.00,tws,2013-07-17 11:30:00,
2013-07-17 04:40:00,75.9,66.5,30.03,East,90,1.6,2.7,72,0.00,,,0.00,tws,2013-07-17 11:40:00,
2013-07-17 04:50:00,75.8,66.5,30.04,South,180,1.1,1.7,72,0.00,,,0.00,tws,2013-07-17 11:50:00,
2013-07-17 05:00:00,75.8,66.7,30.03,SE,135,1.7,2.4,73,0.00,,,0.00,tws,2013-07-17 12:00:00,
2013-07-17 05:10:00,75.7,66.6,30.04,SE,135,1.1,1.7,73,0.00,,,0.00,tws,2013-07-17 12:10:00,
2013-07-17 05:20:00,75.6,66.7,30.05,ESE,112,1.3,1.9,73,0.00,,,0.00,tws,2013-07-17 12:20:00,
2013-07-17 05:30:00,75.5,66.8,30.04,North,0,0.9,1.3,73,0.00,,,0.00,tws,2013-07-17 12:30:00,
2013-07-17 05:40:00,75.4,66.7,30.05,SW,225,0.5,1.7,74,0.00,,,0.00,tws,2013-07-17 12:40:00,
2013-07-17 05:50:00,75.3,66.7,30.05,NW,315,0.6,1.6,74,0.00,,,0.00,tws,2013-07-17 12:50:00,
2013-07-17 06:00:00,75.1,66.6,30.06,NW,315,0.5,1.1,74,0.00,,,0.00,tws,2013-07-17 13:00:00,
2013-07-17 06:10:00,75.1,66.9,30.06,North,0,0.6,1.8,75,0.00,,,0.00,tws,2013-07-17 13:10:00,
2013-07-17 06:20:00,75.2,66.9,30.07,North,0,0.2,1.4,75,0.00,,,0.00,tws,2013-07-17 13:20:00,
2013-07-17 06:30:00,75.4,67.4,30.08,North,0,1.3,1.8,75,0.00,,,0.00,tws,2013-07-17 13:30:00,
2013-07-17 06:40:00,75.6,67.7,30.08,North,0,1.3,2.8,76,0.00,,,0.00,tws,2013-07-17 13:40:00,
2013-07-17 06:50:00,76.0,67.9,30.08,ENE,67,1.0,2.1,75,0.00,,,0.00,tws,2013-07-17 13:50:00,
2013-07-17 07:00:00,76.3,68.0,30.08,East,90,1.3,2.0,75,0.00,,,0.00,tws,2013-07-17 14:00:00,
2013-07-17 07:10:00,76.6,68.3,30.08,ENE,67,1.7,2.6,75,0.00,,,0.00,tws,2013-07-17 14:10:00,
2013-07-17 07:20:00,76.7,68.0,30.08,North,0,1.6,2.6,74,0.00,,,0.00,tws,2013-07-17 14:20:00,
2013-07-17 07:30:00,76.9,68.2,30.08,NE,45,1.3,2.1,74,0.00,,,0.00,tws,2013-07-17 14:30:00,
2013-07-17 07:40:00,77.2,68.5,30.08,SSE,157,1.7,2.3,74,0.00,,,0.00,tws,2013-07-17 14:40:00,
2013-07-17 07:50:00,77.6,68.6,30.08,SE,135,2.5,4.0,73,0.00,,,0.00,tws,2013-07-17 14:50:00,
2013-07-17 08:00:00,78.0,68.4,30.07,SSE,157,2.3,3.5,72,0.00,,,0.00,tws,2013-07-17 15:00:00,
2013-07-17 08:10:00,78.1,68.4,30.09,NW,315,1.1,2.1,71,0.00,,,0.00,tws,2013-07-17 15:10:00,
2013-07-17 08:20:00,78.1,68.6,30.10,North,0,1.0,1.6,72,0.00,,,0.00,tws,2013-07-17 15:20:00,
2013-07-17 08:30:00,78.3,68.6,30.08,South,180,1.3,2.8,71,0.00,,,0.00,tws,2013-07-17 15:30:00,
2013-07-17 08:40:00,78.5,68.4,30.08,NNW,337,0.6,1.6,70,0.00,,,0.00,tws,2013-07-17 15:40:00,
2013-07-17 08:50:00,79.3,68.6,30.08,SE,135,1.4,2.5,69,0.00,,,0.00,tws,2013-07-17 15:50:00,
2013-07-17 09:00:00,80.3,68.6,30.08,NNW,337,1.7,2.9,66,0.00,,,0.00,tws,2013-07-17 16:00:00,
2013-07-17 09:10:00,81.5,68.9,30.07,NW,315,1.6,2.1,65,0.00,,,0.00,tws,2013-07-17 16:10:00,
2013-07-17 09:30:00,83.6,67.3,30.07,SE,135,2.3,3.5,57,-99.99,,,-99.99,tws,2013-07-17 16:30:00,
2013-07-17 09:40:00,84.4,66.1,30.07,South,180,1.5,2.3,53,-99.99,,,-99.99,tws,2013-07-17 16:40:00,
2013-07-17 09:50:00,85.3,66.1,30.07,NE,45,1.9,3.6,52,-99.99,,,-99.99,tws,2013-07-17 16:50:00,
2013-07-17 10:00:00,86.5,65.2,30.07,ENE,67,2.2,3.5,48,-99.99,,,-99.99,tws,2013-07-17 17:00:00,
2013-07-17 10:10:00,87.5,64.0,30.07,NE,45,3.5,8.1,45,-99.99,,,-99.99,tws,2013-07-17 17:10:00,
2013-07-17 10:20:00,88.5,62.9,30.07,NW,315,4.5,7.6,41,-99.99,,,-99.99,tws,2013-07-17 17:20:00,
2013-07-17 10:30:00,89.2,62.5,30.06,NE,45,5.5,8.5,40,-99.99,,,-99.99,tws,2013-07-17 17:30:00,
2013-07-17 10:40:00,89.9,62.7,30.06,NNW,337,6.1,8.1,39,-99.99,,,-99.99,tws,2013-07-17 17:40:00,
2013-07-17 10:50:00,90.5,62.6,30.06,NNE,22,2.9,6.0,38,-99.99,,,-99.99,tws,2013-07-17 17:50:00,
2013-07-17 11:00:00,90.5,62.7,30.06,ESE,112,3.0,5.1,38,-99.99,,,-99.99,tws,2013-07-17 18:00:00,
2013-07-17 11:10:00,90.7,62.1,30.05,East,90,4.6,5.6,37,-99.99,,,-99.99,tws,2013-07-17 18:10:00,
2013-07-17 11:20:00,90.9,62.4,30.05,SSW,202,3.1,5.3,38,-99.99,,,-99.99,tws,2013-07-17 18:20:00,
2013-07-17 11:30:00,90.9,61.8,30.06,SW,225,3.3,5.9,37,-99.99,,,-99.99,tws,2013-07-17 18:30:00,
2013-07-17 11:40:00,90.9,61.1,30.05,SW,225,5.0,6.7,36,-99.99,,,-99.99,tws,2013-07-17 18:40:00,
2013-07-17 11:50:00,90.8,61.1,30.05,South,180,3.3,4.9,36,-99.99,,,-99.99,tws,2013-07-17 18:50:00,
2013-07-17 12:00:00,91.4,61.5,30.04,NE,45,2.8,5.2,36,-99.99,,,-99.99,tws,2013-07-17 19:00:00,
2013-07-17 12:10:00,91.8,61.6,30.05,East,90,4.3,7.4,35,-99.99,,,-99.99,tws,2013-07-17 19:10:00,
2013-07-17 12:20:00,92.6,61.4,30.04,NNE,22,5.0,6.4,34,-99.99,,,-99.99,tws,2013-07-17 19:20:00,
2013-07-17 12:30:00,93.3,61.0,30.03,East,90,5.5,7.6,33,-99.99,,,-99.99,tws,2013-07-17 19:30:00,
2013-07-17 12:40:00,93.8,61.7,30.03,ESE,112,2.5,3.9,33,-99.99,,,-99.99,tws,2013-07-17 19:40:00,
2013-07-17 12:50:00,94.5,61.9,30.03,NW,315,3.8,5.4,33,-99.99,,,-99.99,tws,2013-07-17 19:50:00,
2013-07-17 13:00:00,95.1,62.0,30.04,NE,45,3.0,4.5,32,-99.99,,,-99.99,tws,2013-07-17 20:00:00,
2013-07-17 13:10:00,95.3,61.0,30.03,NW,315,3.0,4.4,31,-99.99,,,-99.99,tws,2013-07-17 20:10:00,
2013-07-17 13:20:00,94.7,59.9,30.03,East,90,4.3,6.8,30,-99.99,,,-99.99,tws,2013-07-17 20:20:00,
2013-07-17 13:30:00,93.8,58.7,30.03,SW,225,4.3,5.7,30,-99.99,,,-99.99,tws,2013-07-17 20:30:00,
2013-07-17 13:40:00,93.7,60.2,30.01,East,90,5.2,6.9,32,-99.99,,,-99.99,tws,2013-07-17 20:40:00,
2013-07-17 13:50:00,94.7,60.4,30.01,South,180,4.0,6.8,31,-99.99,,,-99.99,tws,2013-07-17 20:50:00,
2013-07-17 14:00:00,95.4,60.6,30.01,East,90,4.1,6.8,30,-99.99,,,-99.99,tws,2013-07-17 21:00:00,
2013-07-17 14:10:00,96.2,60.8,30.00,SE,135,5.0,8.4,30,-99.99,,,-99.99,tws,2013-07-17 21:10:00,
2013-07-17 14:20:00,96.8,60.7,30.00,West,270,2.8,5.0,29,-99.99,,,-99.99,tws,2013-07-17 21:20:00,
2013-07-17 14:30:00,97.1,60.8,30.00,SE,135,3.2,4.8,29,-99.99,,,-99.99,tws,2013-07-17 21:30:00,
2013-07-17 14:40:00,97.6,60.7,30.00,SE,135,2.9,4.7,29,-99.99,,,-99.99,tws,2013-07-17 21:40:00,
2013-07-17 14:50:00,98.1,60.6,30.00,SE,135,3.1,5.3,28,-99.99,,,-99.99,tws,2013-07-17 21:50:00,
2013-07-17 15:00:00,98.0,59.8,29.98,South,180,2.6,4.2,27,-99.99,,,-99.99,tws,2013-07-17 22:00:00,
2013-07-17 15:10:00,97.1,60.0,29.98,North,0,3.2,4.2,28,-99.99,,,-99.99,tws,2013-07-17 22:10:00,
2013-07-17 15:20:00,96.3,59.6,29.98,East,90,3.2,4.8,28,-99.99,,,-99.99,tws,2013-07-17 22:20:00,
2013-07-17 15:30:00,95.5,59.2,29.98,SW,225,4.3,5.3,29,-99.99,,,-99.99,tws,2013-07-17 22:30:00,
2013-07-17 15:40:00,95.5,59.6,29.98,South,180,2.8,4.6,29,-99.99,,,-99.99,tws,2013-07-17 22:40:00,
2013-07-17 15:50:00,95.3,59.0,29.97,SW,225,4.5,6.5,29,-99.99,,,-99.99,tws,2013-07-17 22:50:00,
2013-07-17 16:00:00,94.7,59.6,29.96,NNW,337,2.0,2.4,30,-99.99,,,-99.99,tws,2013-07-17 23:00:00,
2013-07-17 16:10:00,94.3,59.9,29.96,South,180,2.3,3.6,31,-99.99,,,-99.99,tws,2013-07-17 23:10:00,
2013-07-17 16:20:00,94.4,59.5,29.95,South,180,3.6,6.5,30,-99.99,,,-99.99,tws,2013-07-17 23:20:00,
2013-07-17 16:30:00,94.8,59.5,29.95,West,270,4.3,5.5,30,-99.99,,,-99.99,tws,2013-07-17 23:30:00,
2013-07-17 16:40:00,94.8,59.9,29.94,SW,225,4.0,5.4,30,-99.99,,,-99.99,tws,2013-07-17 23:40:00,
2013-07-17 16:50:00,94.9,60.4,29.94,NW,315,4.3,6.8,31,-99.99,,,-99.99,tws,2013-07-17 23:50:00,
2013-07-17 17:00:00,95.1,60.5,29.94,SW,225,3.1,6.1,31,-99.99,,,-99.99,tws,2013-07-18 00:00:00,
2013-07-17 17:10:00,94.5,59.1,29.94,SW,225,3.2,4.0,30,-99.99,,,-99.99,tws,2013-07-18 00:10:00,
2013-07-17 17:20:00,93.9,59.2,29.93,South,180,3.4,5.2,30,-99.99,,,-99.99,tws,2013-07-18 00:20:00,
2013-07-17 17:30:00,93.4,59.0,29.93,SSW,202,3.9,4.8,31,-99.99,,,-99.99,tws,2013-07-18 00:30:00,
2013-07-17 17:40:00,93.1,58.6,29.94,SW,225,3.3,4.3,31,-99.99,,,-99.99,tws,2013-07-18 00:40:00,
2013-07-17 17:50:00,92.8,58.4,29.94,SW,225,3.4,4.7,31,-99.99,,,-99.99,tws,2013-07-18 00:50:00,
2013-07-17 18:00:00,92.6,57.8,29.94,South,180,2.9,4.7,30,-99.99,,,-99.99,tws,2013-07-18 01:00:00,
2013-07-17 18:10:00,92.6,57.8,29.94,South,180,3.5,4.8,30,-99.99,,,-99.99,tws,2013-07-18 01:10:00,
2013-07-17 18:20:00,92.7,57.8,29.94,SSE,157,2.9,5.0,30,-99.99,,,-99.99,tws,2013-07-18 01:20:00,
2013-07-17 18:30:00,92.7,58.8,29.95,SW,225,2.8,3.9,31,-99.99,,,-99.99,tws,2013-07-18 01:30:00,
2013-07-17 18:40:00,92.5,59.5,29.96,NE,45,3.7,6.4,32,-99.99,,,-99.99,tws,2013-07-18 01:40:00,
2013-07-17 18:50:00,92.2,58.1,29.95,SE,135,2.1,3.2,31,-99.99,,,-99.99,tws,2013-07-18 01:50:00,
2013-07-17 19:00:00,92.0,58.5,29.96,South,180,2.2,2.8,31,-99.99,,,-99.99,tws,2013-07-18 02:00:00,
2013-07-17 19:10:00,91.7,59.1,29.96,SSE,157,3.1,3.8,32,-99.99,,,-99.99,tws,2013-07-18 02:10:00,
2013-07-17 19:20:00,91.3,59.4,29.96,SSE,157,3.3,4.7,33,-99.99,,,-99.99,tws,2013-07-18 02:20:00,
2013-07-17 19:30:00,90.9,60.1,29.96,SE,135,3.9,5.2,35,-99.99,,,-99.99,tws,2013-07-18 02:30:00,
2013-07-17 19:40:00,90.3,59.7,29.96,South,180,3.6,6.1,35,-99.99,,,-99.99,tws,2013-07-18 02:40:00,
2013-07-17 19:50:00,90.0,59.5,29.95,South,180,3.6,5.3,35,-99.99,,,-99.99,tws,2013-07-18 02:50:00,
2013-07-17 20:00:00,89.9,59.9,29.97,East,90,2.7,4.0,35,-99.99,,,-99.99,tws,2013-07-18 03:00:00,
2013-07-17 20:10:00,89.6,60.4,29.96,ESE,112,5.3,7.2,36,-99.99,,,-99.99,tws,2013-07-18 03:10:00,
2013-07-17 20:20:00,89.2,60.0,29.98,SE,135,4.8,6.0,36,-99.99,,,-99.99,tws,2013-07-18 03:20:00,
2013-07-17 20:30:00,88.9,59.3,29.98,SE,135,4.1,6.0,36,-99.99,,,-99.99,tws,2013-07-18 03:30:00,
2013-07-17 20:40:00,88.5,59.0,29.98,SE,135,3.8,5.9,36,-99.99,,,-99.99,tws,2013-07-18 03:40:00,
2013-07-17 20:50:00,88.2,59.0,29.98,SSE,157,4.6,6.4,36,-99.99,,,-99.99,tws,2013-07-18 03:50:00,
2013-07-17 21:00:00,87.9,58.5,29.99,South,180,3.8,4.9,36,-99.99,,,-99.99,tws,2013-07-18 04:00:00,
2013-07-17 21:10:00,87.6,58.4,29.99,SSE,157,4.2,5.8,36,-99.99,,,-99.99,tws,2013-07-18 04:10:00,
2013-07-17 21:20:00,87.1,58.6,30.00,SE,135,3.9,6.3,37,-99.99,,,-99.99,tws,2013-07-18 04:20:00,
2013-07-17 21:30:00,86.6,58.4,30.00,SSE,157,3.0,4.3,37,-99.99,,,-99.99,tws,2013-07-18 04:30:00,
2013-07-17 21:40:00,86.1,58.4,30.00,South,180,2.6,3.5,38,-99.99,,,-99.99,tws,2013-07-18 04:40:00,
2013-07-17 21:50:00,85.8,58.3,30.01,SSE,157,2.4,4.1,38,-99.99,,,-99.99,tws,2013-07-18 04:50:00,
2013-07-17 22:00:00,85.7,57.6,30.01,SE,135,2.1,3.2,37,-99.99,,,-99.99,tws,2013-07-18 05:00:00,
2013-07-17 22:10:00,85.7,57.3,30.01,SSW,202,2.4,2.9,37,-99.99,,,-99.99,tws,2013-07-18 05:10:00,
2013-07-17 22:20:00,85.6,57.9,30.00,East,90,3.2,3.7,38,-99.99,,,-99.99,tws,2013-07-18 05:20:00,
2013-07-17 22:30:00,85.1,58.7,30.01,East,90,2.6,4.0,40,-99.99,,,-99.99,tws,2013-07-18 05:30:00,
2013-07-17 22:40:00,84.7,58.1,30.01,West,270,2.6,4.4,39,-99.99,,,-99.99,tws,2013-07-18 05:40:00,
2013-07-17 22:50:00,84.4,58.9,30.00,SW,225,1.9,2.8,41,-99.99,,,-99.99,tws,2013-07-18 05:50:00,
2013-07-17 23:00:00,84.2,58.1,30.00,SW,225,2.4,3.4,40,-99.99,,,-99.99,tws,2013-07-18 06:00:00,
2013-07-17 23:10:00,84.1,58.3,30.01,East,90,0.7,1.5,41,-99.99,,,-99.99,tws,2013-07-18 06:10:00,
2013-07-17 23:20:00,83.9,58.9,30.01,East,90,1.6,3.6,42,-99.99,,,-99.99,tws,2013-07-18 06:20:00,
2013-07-17 23:30:00,83.7,59.1,30.01,North,0,2.4,3.3,42,-99.99,,,-99.99,tws,2013-07-18 06:30:00,
2013-07-17 23:40:00,83.5,59.8,30.01,East,90,1.6,2.2,44,-99.99,,,-99.99,tws,2013-07-18 06:40:00,
2013-07-17 23:50:00,83.4,60.0,30.02,North,0,1.9,2.8,44,-99.99,,,-99.99,tws,2013-07-18 06:50:00,